When you browse on this site, cookies collect data to enhance your experience and personalize the content and advertising you see.
Visit our Privacy Policy to learn more. By continuing to use the site, you agree to this use of cookies and data.

Hourly Weather Korçe

Today, 19 September, Saturday

Time Temperature Precipitation Wind Pressure Humidity
00:00 +17°C° 0.1 mm 2 mps 668 mmHg 71%
01:00 +16°C° 0 mm 2 mps 668 mmHg 70%
02:00 +16°C° 0 mm 2 mps 668 mmHg 72%
03:00 +16°C° 0 mm 2 mps 668 mmHg 74%
04:00 +15°C° 0 mm 2 mps 668 mmHg 77%
05:00 +16°C° 0 mm 2 mps 668 mmHg 75%
06:00 +16°C° 0 mm 2 mps 669 mmHg 72%
07:00 +17°C° 0 mm 2 mps 669 mmHg 70%
08:00 +18°C° 0 mm 3 mps 670 mmHg 61%
09:00 +20°C° 0 mm 3 mps 670 mmHg 52%
10:00 +22°C° 0 mm 3 mps 671 mmHg 44%
11:00 +24°C° 0 mm 3 mps 671 mmHg 40%
12:00 +25°C° 0 mm 3 mps 671 mmHg 37%
13:00 +26°C° 0 mm 3 mps 671 mmHg 33%
14:00 +25°C° 0 mm 3 mps 670 mmHg 34%
15:00 +25°C° 0 mm 2 mps 670 mmHg 35%
16:00 +24°C° 0 mm 2 mps 670 mmHg 36%
17:00 +21°C° 0 mm 2 mps 669 mmHg 44%
18:00 +20°C° 0 mm 1 mps 669 mmHg 51%
19:00 +18°C° 0 mm 1 mps 668 mmHg 59%
20:00 +16°C° 0 mm 1 mps 668 mmHg 61%
21:00 +15°C° 0 mm 1 mps 668 mmHg 64%
22:00 +15°C° 0 mm 1 mps 668 mmHg 67%
23:00 +14°C° 0 mm 1 mps 668 mmHg 67%

Tomorrow, 20 September, Sunday

Time Temperature Precipitation Wind Pressure Humidity
00:00 +14°C° 0 mm 1 mps 668 mmHg 68%
01:00 +14°C° 0 mm 1 mps 667 mmHg 69%
02:00 +14°C° 0 mm 1 mps 667 mmHg 69%
03:00 +13°C° 0 mm 1 mps 667 mmHg 69%
04:00 +13°C° 0 mm 1 mps 667 mmHg 69%
05:00 +14°C° 0 mm 1 mps 668 mmHg 64%
06:00 +16°C° 0 mm 1 mps 668 mmHg 60%
07:00 +18°C° 0 mm 1 mps 668 mmHg 55%
08:00 +20°C° 0 mm 1 mps 669 mmHg 49%
09:00 +23°C° 0 mm 1 mps 670 mmHg 42%
10:00 +25°C° 0 mm 1 mps 670 mmHg 35%
11:00 +26°C° 0 mm 2 mps 670 mmHg 33%
12:00 +26°C° 0 mm 2 mps 670 mmHg 32%
13:00 +27°C° 0 mm 3 mps 669 mmHg 30%
14:00 +26°C° 0 mm 3 mps 669 mmHg 34%
15:00 +25°C° 0 mm 3 mps 669 mmHg 39%
16:00 +24°C° 0 mm 3 mps 669 mmHg 44%
17:00 +21°C° 0.1 mm 2 mps 668 mmHg 54%
18:00 +18°C° 0.1 mm 2 mps 668 mmHg 65%
19:00 +16°C° 0.1 mm 1 mps 667 mmHg 75%
20:00 +15°C° 0 mm 1 mps 668 mmHg 76%
21:00 +15°C° 0 mm 1 mps 668 mmHg 76%
22:00 +14°C° 0 mm 1 mps 668 mmHg 77%
23:00 +14°C° 0 mm 1 mps 668 mmHg 77%

Day after tomorrow, 21 September, Monday

Time Temperature Precipitation Wind Pressure Humidity
00:00 +14°C° 0 mm 1 mps 668 mmHg 77%
01:00 +13°C° 0 mm 1 mps 667 mmHg 77%
02:00 +13°C° 0 mm 1 mps 667 mmHg 77%
03:00 +13°C° 0 mm 1 mps 667 mmHg 78%
04:00 +13°C° 0 mm 1 mps 667 mmHg 78%
05:00 +14°C° 0 mm 1 mps 668 mmHg 72%
06:00 +15°C° 0 mm 1 mps 668 mmHg 67%
07:00 +16°C° 0 mm 1 mps 669 mmHg 62%
08:00 +20°C° 0 mm 1 mps 669 mmHg 54%
09:00 +22°C° 0 mm 1 mps 670 mmHg 47%
10:00 +25°C° 0 mm 1 mps 671 mmHg 39%
11:00 +25°C° 0 mm 1 mps 671 mmHg 37%
12:00 +26°C° 0 mm 2 mps 670 mmHg 35%
13:00 +26°C° 0 mm 2 mps 670 mmHg 32%
14:00 +25°C° 0 mm 2 mps 670 mmHg 37%
15:00 +24°C° 0 mm 2 mps 670 mmHg 42%
16:00 +23°C° 0 mm 2 mps 669 mmHg 46%
17:00 +20°C° 0.5 mm 2 mps 669 mmHg 57%
18:00 +19°C° 0.5 mm 1 mps 669 mmHg 67%
19:00 +16°C° 0.5 mm 1 mps 668 mmHg 77%
20:00 +16°C° 0.1 mm 1 mps 668 mmHg 78%
21:00 +15°C° 0.1 mm 1 mps 668 mmHg 80%
22:00 +15°C° 0.1 mm 1 mps 668 mmHg 82%
23:00 +14°C° 0 mm 1 mps 668 mmHg 83%

22 September, Tuesday

Time Temperature Precipitation Wind Pressure Humidity
00:00 +14°C° 0 mm 1 mps 668 mmHg 84%
01:00 +14°C° 0 mm 1 mps 668 mmHg 85%
02:00 +14°C° 0 mm 1 mps 668 mmHg 85%
03:00 +13°C° 0 mm 1 mps 667 mmHg 85%
04:00 +13°C° 0 mm 1 mps 667 mmHg 85%
05:00 +14°C° 0 mm 1 mps 668 mmHg 81%
06:00 +15°C° 0 mm 1 mps 668 mmHg 76%
07:00 +16°C° 0 mm 1 mps 669 mmHg 71%
08:00 +20°C° 0 mm 1 mps 669 mmHg 62%
09:00 +21°C° 0 mm 2 mps 670 mmHg 54%
10:00 +24°C° 0 mm 2 mps 670 mmHg 45%
11:00 +24°C° 0 mm 2 mps 670 mmHg 43%
12:00 +25°C° 0 mm 2 mps 670 mmHg 40%
13:00 +25°C° 0 mm 2 mps 670 mmHg 37%
14:00 +25°C° 0.1 mm 2 mps 670 mmHg 40%
15:00 +24°C° 0.1 mm 2 mps 669 mmHg 43%
16:00 +23°C° 0.1 mm 2 mps 669 mmHg 46%
17:00 +20°C° 0 mm 2 mps 668 mmHg 54%
18:00 +19°C° 0 mm 1 mps 668 mmHg 61%
19:00 +16°C° 0 mm 1 mps 668 mmHg 69%
20:00 +15°C° 0 mm 1 mps 668 mmHg 71%
21:00 +14°C° 0 mm 1 mps 668 mmHg 73%
22:00 +14°C° 0 mm 1 mps 668 mmHg 75%
23:00 +13°C° 0 mm 1 mps 667 mmHg 75%

23 September, Wednesday

Time Temperature Precipitation Wind Pressure Humidity
00:00 +13°C° 0 mm 1 mps 667 mmHg 75%
01:00 +13°C° 0 mm 1 mps 667 mmHg 75%
02:00 +13°C° 0 mm 1 mps 667 mmHg 75%
03:00 +13°C° 0 mm 1 mps 666 mmHg 75%
04:00 +12°C° 0 mm 1 mps 666 mmHg 75%
05:00 +14°C° 0 mm 1 mps 667 mmHg 70%
06:00 +15°C° 0 mm 2 mps 667 mmHg 66%
07:00 +16°C° 0 mm 2 mps 667 mmHg 61%
08:00 +18°C° 0 mm 2 mps 668 mmHg 54%
09:00 +20°C° 0 mm 2 mps 668 mmHg 47%
10:00 +24°C° 0 mm 3 mps 669 mmHg 39%
11:00 +24°C° 0 mm 3 mps 668 mmHg 39%
12:00 +25°C° 0 mm 3 mps 668 mmHg 39%
13:00 +25°C° 0 mm 3 mps 668 mmHg 40%
14:00 +25°C° 0.3 mm 3 mps 668 mmHg 44%
15:00 +24°C° 0.3 mm 3 mps 667 mmHg 49%
16:00 +22°C° 0.3 mm 3 mps 667 mmHg 53%
17:00 +20°C° 0.7 mm 2 mps 666 mmHg 63%
18:00 +18°C° 0.7 mm 2 mps 666 mmHg 74%
19:00 +16°C° 0.7 mm 1 mps 666 mmHg 84%
20:00 +16°C° 0.1 mm 1 mps 666 mmHg 85%
21:00 +15°C° 0.1 mm 1 mps 666 mmHg 87%
22:00 +15°C° 0.1 mm 2 mps 666 mmHg 88%
23:00 +15°C° 0.3 mm 2 mps 666 mmHg 88%

24 September, Thursday

Time Temperature Precipitation Wind Pressure Humidity
00:00 +15°C° 0.3 mm 2 mps 665 mmHg 89%
01:00 +15°C° 0.3 mm 2 mps 665 mmHg 89%
02:00 +15°C° 0.8 mm 2 mps 665 mmHg 88%
03:00 +15°C° 0.8 mm 2 mps 665 mmHg 87%
04:00 +15°C° 0.8 mm 2 mps 665 mmHg 85%
05:00 +16°C° 0.8 mm 1 mps 665 mmHg 84%
06:00 +16°C° 0.8 mm 1 mps 665 mmHg 82%
07:00 +16°C° 0.8 mm 1 mps 666 mmHg 81%
08:00 +18°C° 0.7 mm 1 mps 666 mmHg 73%
09:00 +20°C° 0.7 mm 1 mps 667 mmHg 65%
10:00 +21°C° 0.7 mm 1 mps 667 mmHg 57%
11:00 +21°C° 0.2 mm 2 mps 667 mmHg 52%
12:00 +22°C° 0.2 mm 3 mps 668 mmHg 48%
13:00 +24°C° 0.2 mm 3 mps 668 mmHg 43%
14:00 +22°C° 0.1 mm 3 mps 667 mmHg 44%
15:00 +22°C° 0.1 mm 3 mps 667 mmHg 45%
16:00 +21°C° 0.1 mm 3 mps 667 mmHg 46%
17:00 +19°C° 0 mm 2 mps 667 mmHg 53%
18:00 +18°C° 0 mm 2 mps 667 mmHg 60%
19:00 +16°C° 0 mm 1 mps 666 mmHg 67%
20:00 +16°C° 0 mm 1 mps 666 mmHg 69%
21:00 +15°C° 0 mm 1 mps 667 mmHg 71%
22:00 +15°C° 0 mm 1 mps 667 mmHg 73%
23:00 +14°C° 0 mm 1 mps 667 mmHg 75%
Show more